| time (UTC) | temp F | wind direction | speed MPH | gust MPH | rain 1hr in | rain 24hr in | rain mn in | humidity % | barometer mb |
| 20260906055614 | 75 | 338 | 2.0 | 3.0 | 0.00 | 0.00 | 0.00 | 96 | 1015.6 |
| 20260906055109 | 75 | 329 | 2.0 | 2.0 | 0.00 | 0.00 | 0.00 | 96 | 1015.6 |
| 20260906054610 | 75 | 352 | 1.0 | 1.0 | 0.00 | 0.00 | 0.00 | 96 | 1015.7 |
| 20260906054105 | 75 | 28 | 0.0 | 1.0 | 0.00 | 0.00 | 0.00 | 96 | 1015.6 |
| 20260906053601 | 75 | 336 | 1.0 | 2.0 | 0.00 | 0.00 | 0.00 | 96 | 1015.7 |
| 20260906053057 | 75 | 341 | 2.0 | 2.0 | 0.00 | 0.00 | 0.00 | 95 | 1015.6 |
| 20260906052552 | 75 | 354 | 2.0 | 2.0 | 0.00 | 0.00 | 0.00 | 95 | 1015.5 |
| 20260906052049 | 75 | 337 | 1.0 | 2.0 | 0.00 | 0.00 | 0.00 | 95 | 1015.6 |
| 20260906051545 | 75 | 334 | 2.0 | 2.0 | 0.00 | 0.00 | 0.00 | 95 | 1015.7 |
| 20260906051040 | 75 | 339 | 1.0 | 2.0 | 0.00 | 0.00 | 0.00 | 95 | 1015.7 |
| 20260906050535 | 75 | 351 | 1.0 | 2.0 | 0.00 | 0.00 | 0.00 | 95 | 1015.6 |
| 20260906050030 | 75 | 336 | 1.0 | 3.0 | 0.00 | 0.00 | 0.00 | 94 | 1015.8 |
| 20260906045528 | 75 | 329 | 2.0 | 2.0 | 0.00 | 0.00 | 0.00 | 94 | 1015.9 |
| 20260906045024 | 75 | 342 | 1.0 | 3.0 | 0.00 | 0.00 | 0.00 | 94 | 1015.8 |
| 20260906044519 | 75 | 341 | 1.0 | 2.0 | 0.00 | 0.00 | 0.00 | 94 | 1015.9 |
| 20260906044015 | 75 | 347 | 2.0 | 2.0 | 0.00 | 0.00 | 0.00 | 94 | 1016.2 |
| 20260906043510 | 75 | 342 | 2.0 | 3.0 | 0.00 | 0.00 | 0.00 | 94 | 1016.2 |
| 20260906043007 | 76 | 357 | 2.0 | 2.0 | 0.00 | 0.00 | 0.00 | 93 | 1016.0 |
| 20260906042505 | 75 | 341 | 2.0 | 2.0 | 0.00 | 0.00 | 0.00 | 93 | 1016.3 |
| 20260906042005 | 76 | 350 | 1.0 | 2.0 | 0.00 | 0.00 | 0.00 | 93 | 1016.1 |
| 20260906041502 | 76 | 341 | 1.0 | 1.0 | 0.00 | 0.00 | 0.00 | 93 | 1016.2 |
| 20260906041001 | 76 | 354 | 1.0 | 2.0 | 0.00 | 0.00 | 0.00 | 93 | 1016.2 |
| 20260906040456 | 76 | 342 | 2.0 | 3.0 | 0.00 | 0.00 | 0.00 | 94 | 1016.0 |
| 20260906035951 | 76 | 344 | 1.0 | 2.0 | 0.00 | 0.00 | 0.00 | 93 | 1016.2 |
| 20260906035447 | 76 | 336 | 1.0 | 2.0 | 0.00 | 0.00 | 0.00 | 93 | 1016.1 |
| 20260906034943 | 76 | 17 | 1.0 | 1.0 | 0.00 | 0.00 | 0.00 | 93 | 1016.1 |
| 20260906034442 | 76 | 349 | 1.0 | 2.0 | 0.00 | 0.00 | 0.00 | 93 | 1016.1 |
| 20260906033938 | 76 | 344 | 1.0 | 1.0 | 0.00 | 0.00 | 0.00 | 93 | 1016.0 |
| 20260906033438 | 76 | 343 | 1.0 | 2.0 | 0.00 | 0.00 | 0.00 | 92 | 1016.4 |
| 20260906032934 | 76 | 344 | 1.0 | 2.0 | 0.00 | 0.00 | 0.00 | 92 | 1016.3 |
| 20260906032431 | 76 | 330 | 2.0 | 2.0 | 0.00 | 0.00 | 0.00 | 91 | 1016.1 |
| 20260906031930 | 77 | 355 | 1.0 | 2.0 | 0.00 | 0.00 | 0.00 | 92 | 1016.3 |
| 20260906031426 | 77 | 329 | 1.0 | 1.0 | 0.00 | 0.00 | 0.00 | 92 | 1016.2 |
| 20260906030921 | 77 | 5 | 1.0 | 2.0 | 0.00 | 0.00 | 0.00 | 92 | 1016.2 |
| 20260906030415 | 77 | 331 | 1.0 | 2.0 | 0.00 | 0.00 | 0.00 | 92 | 1016.4 |
| 20260906025910 | 77 | 348 | 1.0 | 2.0 | 0.00 | 0.00 | 0.00 | 91 | 1016.4 |
| 20260906025404 | 77 | 344 | 2.0 | 2.0 | 0.00 | 0.00 | 0.00 | 91 | 1016.4 |
| 20260906024903 | 77 | 344 | 2.0 | 2.0 | 0.00 | 0.00 | 0.00 | 92 | 1016.2 |
| 20260906024402 | 77 | 341 | 2.0 | 3.0 | 0.00 | 0.00 | 0.00 | 91 | 1016.0 |
| 20260906023858 | 77 | 332 | 1.0 | 2.0 | 0.00 | 0.00 | 0.00 | 91 | 1015.7 |
| 20260906023355 | 77 | 333 | 1.0 | 2.0 | 0.00 | 0.00 | 0.00 | 91 | 1015.7 |
| 20260906022854 | 77 | 335 | 1.0 | 2.0 | 0.00 | 0.00 | 0.00 | 90 | 1015.7 |
| 20260906022349 | 77 | 15 | 0.0 | 1.0 | 0.00 | 0.00 | 0.00 | 90 | 1015.7 |
| 20260906021845 | 77 | 335 | 1.0 | 2.0 | 0.00 | 0.00 | 0.00 | 90 | 1015.6 |
| 20260906021344 | 77 | 351 | 1.0 | 2.0 | 0.00 | 0.00 | 0.00 | 90 | 1015.5 |
| 20260906020839 | 77 | 341 | 1.0 | 2.0 | 0.00 | 0.00 | 0.00 | 90 | 1015.6 |
| 20260906020338 | 77 | 341 | 2.0 | 2.0 | 0.00 | 0.00 | 0.00 | 90 | 1015.5 |
| 20260906015833 | 77 | 337 | 2.0 | 3.0 | 0.00 | 0.00 | 0.00 | 89 | 1015.7 |
| 20260906015332 | 77 | 336 | 2.0 | 2.0 | 0.00 | 0.00 | 0.00 | 89 | 1015.6 |
| 20260906014832 | 77 | 341 | 2.0 | 2.0 | 0.00 | 0.00 | 0.00 | 89 | 1015.6 |
| 20260906014327 | 77 | 341 | 2.0 | 2.0 | 0.00 | 0.00 | 0.00 | 88 | 1015.3 |
| 20260906013824 | 78 | 340 | 2.0 | 2.0 | 0.00 | 0.00 | 0.00 | 88 | 1015.5 |
| 20260906013319 | 78 | 332 | 2.0 | 2.0 | 0.00 | 0.00 | 0.00 | 88 | 1015.4 |
| 20260906012814 | 78 | 325 | 1.0 | 2.0 | 0.00 | 0.00 | 0.00 | 88 | 1015.3 |
| 20260906012314 | 77 | 341 | 2.0 | 3.0 | 0.00 | 0.00 | 0.00 | 88 | 1015.1 |
| 20260906011809 | 78 | 334 | 2.0 | 2.0 | 0.00 | 0.00 | 0.00 | 88 | 1015.4 |
| 20260906011309 | 78 | 340 | 1.0 | 3.0 | 0.00 | 0.00 | 0.00 | 88 | 1015.3 |
| 20260906010806 | 78 | 344 | 1.0 | 2.0 | 0.00 | 0.00 | 0.00 | 86 | 1015.3 |
| 20260906010301 | 79 | 0 | 1.0 | 2.0 | 0.00 | 0.00 | 0.00 | 87 | 1015.3 |
| 20260906005756 | 79 | 332 | 1.0 | 2.0 | 0.00 | 0.00 | 0.00 | 86 | 1015.0 |
| 20260906005255 | 79 | 339 | 1.0 | 2.0 | 0.00 | 0.00 | 0.00 | 86 | 1015.2 |
| 20260906004754 | 79 | 336 | 1.0 | 2.0 | 0.00 | 0.00 | 0.00 | 85 | 1014.8 |
| 20260906004249 | 79 | 327 | 2.0 | 2.0 | 0.00 | 0.00 | 0.00 | 85 | 1015.1 |
| 20260906003749 | 80 | 35 | 0.0 | 1.0 | 0.00 | 0.00 | 0.00 | 85 | 1014.8 |
| 20260906003245 | 79 | 334 | 1.0 | 2.0 | 0.00 | 0.00 | 0.00 | 85 | 1014.7 |
| 20260906002741 | 80 | 335 | 2.0 | 2.0 | 0.00 | 0.00 | 0.00 | 85 | 1014.6 |
| 20260906002240 | 80 | 334 | 2.0 | 2.0 | 0.00 | 0.00 | 0.00 | 85 | 1015.0 |
| 20260906001736 | 80 | 335 | 2.0 | 2.0 | 0.00 | 0.00 | 0.00 | 84 | 1015.0 |
| 20260906001230 | 80 | 14 | 2.0 | 2.0 | 0.00 | 0.00 | 0.00 | 84 | 1014.8 |
| 20260906000726 | 80 | 353 | 1.0 | 2.0 | 0.00 | 0.00 | 0.00 | 82 | 1014.6 |
| 20260906000227 | 81 | 345 | 1.0 | 2.0 | 0.00 | 0.00 | 0.00 | 82 | 1014.9 |
| 20260905235726 | 82 | 5 | 0.0 | 0.0 | 0.00 | 0.00 | 0.00 | 81 | 1015.0 |
| 20260905235221 | 82 | 31 | 1.0 | 1.0 | 0.00 | 0.00 | 0.00 | 79 | 1015.1 |
| 20260905234717 | 82 | 346 | 1.0 | 2.0 | 0.00 | 0.00 | 0.00 | 79 | 1015.0 |
| 20260905234212 | 83 | 319 | 1.0 | 1.0 | 0.00 | 0.00 | 0.00 | 79 | 1014.8 |
| 20260905233713 | 84 | 14 | 1.0 | 1.0 | 0.00 | 0.00 | 0.00 | 77 | 1014.9 |
| 20260905233212 | 84 | 155 | 0.0 | 1.0 | 0.00 | 0.00 | 0.00 | 76 | 1015.1 |
| 20260905232707 | 83 | 329 | 1.0 | 2.0 | 0.00 | 0.00 | 0.00 | 76 | 1015.3 |
| 20260905232202 | 84 | 336 | 1.0 | 1.0 | 0.00 | 0.00 | 0.00 | 75 | 1015.0 |
| 20260905231658 | 84 | 35 | 1.0 | 1.0 | 0.00 | 0.00 | 0.00 | 75 | 1014.6 |
| 20260905231154 | 84 | 6 | 0.0 | 1.0 | 0.00 | 0.00 | 0.00 | 76 | 1014.7 |
| 20260905230649 | 84 | 89 | 0.0 | 1.0 | 0.00 | 0.00 | 0.00 | 76 | 1014.5 |
| 20260905230147 | 84 | 68 | 0.0 | 0.0 | 0.00 | 0.00 | 0.00 | 74 | 1014.5 |
| 20260905225647 | 85 | 352 | 1.0 | 2.0 | 0.00 | 0.00 | 0.00 | 75 | 1014.6 |
| 20260905225142 | 85 | 116 | 0.0 | 2.0 | 0.00 | 0.00 | 0.00 | 74 | 1014.8 |
| 20260905224642 | 85 | 108 | 2.0 | 2.0 | 0.00 | 0.00 | 0.00 | 72 | 1014.7 |
| 20260905224141 | 85 | 16 | 0.0 | 2.0 | 0.00 | 0.00 | 0.00 | 70 | 1014.5 |
| 20260905223639 | 85 | 328 | 1.0 | 2.0 | 0.00 | 0.00 | 0.00 | 73 | 1014.7 |
| 20260905223135 | 85 | 330 | 2.0 | 2.0 | 0.00 | 0.00 | 0.00 | 73 | 1014.5 |
| 20260905222630 | 86 | 102 | 0.0 | 0.0 | 0.00 | 0.00 | 0.00 | 70 | 1014.6 |
| 20260905222125 | 85 | 330 | 1.0 | 1.0 | 0.00 | 0.00 | 0.00 | 72 | 1015.1 |
| 20260905221621 | 85 | 43 | 0.0 | 1.0 | 0.00 | 0.00 | 0.00 | 71 | 1015.1 |
| 20260905221118 | 86 | 343 | 1.0 | 2.0 | 0.00 | 0.00 | 0.00 | 69 | 1015.0 |
| 20260905220613 | 86 | 88 | 0.0 | 1.0 | 0.00 | 0.00 | 0.00 | 67 | 1015.3 |
| 20260905220109 | 86 | 149 | 0.0 | 1.0 | 0.00 | 0.00 | 0.00 | 67 | 1015.1 |
| 20260905215608 | 86 | 88 | 3.0 | 3.0 | 0.00 | 0.00 | 0.00 | 69 | 1015.2 |
| 20260905215104 | 86 | 117 | 2.0 | 4.0 | 0.00 | 0.00 | 0.00 | 69 | 1015.2 |
| 20260905214600 | 86 | 109 | 3.0 | 4.0 | 0.00 | 0.00 | 0.00 | 68 | 1015.5 |
| 20260905214100 | 87 | 354 | 2.0 | 3.0 | 0.00 | 0.00 | 0.00 | 67 | 1015.5 |
| 20260905213555 | 87 | 103 | 0.0 | 2.0 | 0.00 | 0.00 | 0.00 | 69 | 1015.5 |
| 20260905213051 | 86 | 117 | 1.0 | 2.0 | 0.00 | 0.00 | 0.00 | 70 | 1015.6 |
| 20260905212551 | 86 | 119 | 2.0 | 2.0 | 0.00 | 0.00 | 0.00 | 71 | 1015.6 |
| 20260905212050 | 86 | 113 | 1.0 | 3.0 | 0.00 | 0.00 | 0.00 | 71 | 1015.5 |
| 20260905211546 | 85 | 111 | 2.0 | 4.0 | 0.00 | 0.00 | 0.00 | 72 | 1015.5 |
| 20260905211041 | 85 | 108 | 3.0 | 7.0 | 0.00 | 0.00 | 0.00 | 74 | 1015.7 |
| 20260905210537 | 84 | 114 | 3.0 | 4.0 | 0.00 | 0.00 | 0.00 | 76 | 1015.4 |
| 20260905210032 | 84 | 97 | 2.0 | 2.0 | 0.00 | 0.00 | 0.00 | 76 | 1015.6 |
| 20260905205531 | 83 | 7 | 0.0 | 2.0 | 0.00 | 0.00 | 0.00 | 79 | 1015.7 |
| 20260905205030 | 83 | 113 | 2.0 | 3.0 | 0.00 | 0.00 | 0.00 | 77 | 1015.9 |
| 20260905204525 | 83 | 291 | 2.0 | 3.0 | 0.00 | 0.00 | 0.00 | 77 | 1015.5 |
| 20260905204021 | 83 | 59 | 2.0 | 3.0 | 0.00 | 0.00 | 0.00 | 78 | 1015.7 |
| 20260905203520 | 83 | 101 | 3.0 | 3.0 | 0.00 | 0.00 | 0.00 | 82 | 1015.9 |
| 20260905203016 | 83 | 312 | 3.0 | 4.0 | 0.00 | 0.00 | 0.00 | 79 | 1015.4 |
| 20260905202511 | 84 | 96 | 2.0 | 4.0 | 0.00 | 0.00 | 0.00 | 75 | 1015.5 |
| 20260905202006 | 85 | 316 | 2.0 | 2.0 | 0.00 | 0.00 | 0.00 | 72 | 1015.2 |
| 20260905201502 | 84 | 306 | 2.0 | 3.0 | 0.00 | 0.00 | 0.00 | 76 | 1015.2 |
| 20260905201001 | 83 | 358 | 1.0 | 4.0 | 0.00 | 0.00 | 0.00 | 78 | 1015.6 |
| 20260905200457 | 84 | 49 | 2.0 | 7.0 | 0.00 | 0.00 | 0.00 | 75 | 1015.7 |
| 20260905195955 | 85 | 320 | 6.0 | 8.0 | 0.00 | 0.00 | 0.00 | 75 | 1015.6 |
| 20260905195450 | 86 | 141 | 3.0 | 7.0 | 0.00 | 0.00 | 0.00 | 73 | 1015.9 |
| 20260905194946 | 93 | 82 | 6.0 | 7.0 | 0.00 | 0.00 | 0.00 | 64 | 1015.7 |
| 20260905194445 | 96 | 143 | 1.0 | 2.0 | 0.00 | 0.00 | 0.00 | 54 | 1015.2 |
| 20260905193940 | 98 | 179 | 1.0 | 2.0 | 0.00 | 0.00 | 0.00 | 53 | 1015.3 |
| 20260905193440 | 97 | 271 | 2.0 | 3.0 | 0.00 | 0.00 | 0.00 | 50 | 1015.2 |
| 20260905192935 | 96 | 219 | 2.0 | 3.0 | 0.00 | 0.00 | 0.00 | 53 | 1015.3 |
| 20260905192431 | 96 | 203 | 1.0 | 2.0 | 0.00 | 0.00 | 0.00 | 54 | 1015.4 |
| 20260905191926 | 95 | 238 | 3.0 | 4.0 | 0.00 | 0.00 | 0.00 | 56 | 1015.5 |
| 20260905191426 | 93 | 218 | 5.0 | 6.0 | 0.00 | 0.00 | 0.00 | 57 | 1015.4 |
| 20260905190920 | 92 | 220 | 4.0 | 6.0 | 0.00 | 0.00 | 0.00 | 57 | 1015.4 |
| 20260905190417 | 92 | 231 | 3.0 | 6.0 | 0.00 | 0.00 | 0.00 | 61 | 1015.6 |
| 20260905185916 | 94 | 210 | 2.0 | 4.0 | 0.00 | 0.00 | 0.00 | 60 | 1015.6 |
| 20260905185412 | 94 | 274 | 1.0 | 3.0 | 0.00 | 0.00 | 0.00 | 56 | 1015.9 |
| 20260905184910 | 93 | 245 | 1.0 | 3.0 | 0.00 | 0.00 | 0.00 | 57 | 1016.0 |
| 20260905184404 | 92 | 223 | 1.0 | 2.0 | 0.00 | 0.00 | 0.00 | 60 | 1015.8 |
| 20260905183903 | 91 | 221 | 2.0 | 2.0 | 0.00 | 0.00 | 0.00 | 64 | 1015.6 |
| 20260905183358 | 91 | 224 | 1.0 | 3.0 | 0.00 | 0.00 | 0.00 | 62 | 1015.8 |
| 20260905182853 | 92 | 281 | 1.0 | 2.0 | 0.00 | 0.00 | 0.00 | 61 | 1015.8 |
| 20260905182352 | 93 | 225 | 1.0 | 2.0 | 0.00 | 0.00 | 0.00 | 58 | 1016.0 |
| 20260905181849 | 93 | 23 | 1.0 | 2.0 | 0.00 | 0.00 | 0.00 | 60 | 1016.0 |
| 20260905181348 | 93 | 108 | 2.0 | 3.0 | 0.00 | 0.00 | 0.00 | 58 | 1015.9 |
| 20260905180847 | 92 | 106 | 4.0 | 4.0 | 0.00 | 0.00 | 0.00 | 66 | 1016.2 |
| 20260905180342 | 94 | 132 | 0.0 | 3.0 | 0.00 | 0.00 | 0.00 | 60 | 1016.3 |
| 20260905175837 | 93 | 98 | 1.0 | 6.0 | 0.00 | 0.00 | 0.00 | 59 | 1016.1 |
| 20260905175331 | 93 | 69 | 1.0 | 4.0 | 0.00 | 0.00 | 0.00 | 67 | 1016.2 |
| 20260905174826 | 93 | 90 | 4.0 | 8.0 | 0.00 | 0.00 | 0.00 | 64 | 1016.0 |
| 20260905174322 | 92 | 112 | 2.0 | 4.0 | 0.00 | 0.00 | 0.00 | 65 | 1016.0 |
| 20260905173818 | 92 | 100 | 4.0 | 6.0 | 0.00 | 0.00 | 0.00 | 62 | 1016.4 |
| 20260905173314 | 92 | 97 | 4.0 | 4.0 | 0.00 | 0.00 | 0.00 | 63 | 1016.2 |
| 20260905172814 | 92 | 100 | 4.0 | 4.0 | 0.00 | 0.00 | 0.00 | 63 | 1016.4 |
| 20260905172312 | 91 | 112 | 3.0 | 4.0 | 0.00 | 0.00 | 0.00 | 65 | 1016.5 |
| 20260905171808 | 91 | 105 | 4.0 | 4.0 | 0.00 | 0.00 | 0.00 | 71 | 1016.6 |
| 20260905171305 | 91 | 112 | 3.0 | 3.0 | 0.00 | 0.00 | 0.00 | 73 | 1016.5 |
| 20260905170801 | 91 | 104 | 3.0 | 4.0 | 0.00 | 0.00 | 0.00 | 70 | 1016.6 |
| 20260905170256 | 91 | 117 | 2.0 | 3.0 | 0.00 | 0.00 | 0.00 | 74 | 1016.6 |
| 20260905165755 | 90 | 115 | 2.0 | 2.0 | 0.00 | 0.00 | 0.00 | 72 | 1016.6 |
| 20260905165251 | 90 | 112 | 2.0 | 2.0 | 0.00 | 0.00 | 0.00 | 73 | 1016.7 |
| 20260905164752 | 90 | 114 | 2.0 | 3.0 | 0.00 | 0.00 | 0.00 | 74 | 1016.8 |
| 20260905164252 | 90 | 118 | 2.0 | 3.0 | 0.00 | 0.00 | 0.00 | 74 | 1016.8 |
| 20260905163747 | 89 | 119 | 3.0 | 3.0 | 0.00 | 0.00 | 0.00 | 69 | 1017.2 |
| 20260905163244 | 89 | 114 | 2.0 | 3.0 | 0.00 | 0.00 | 0.00 | 70 | 1017.1 |
| 20260905162739 | 89 | 113 | 2.0 | 3.0 | 0.00 | 0.00 | 0.00 | 72 | 1017.0 |
| 20260905162239 | 89 | 110 | 2.0 | 3.0 | 0.00 | 0.00 | 0.00 | 75 | 1017.2 |
| 20260905161734 | 89 | 109 | 3.0 | 3.0 | 0.00 | 0.00 | 0.00 | 73 | 1017.2 |
| 20260905161232 | 88 | 114 | 2.0 | 3.0 | 0.00 | 0.00 | 0.00 | 73 | 1017.1 |
| 20260905160731 | 88 | 109 | 2.0 | 3.0 | 0.00 | 0.00 | 0.00 | 74 | 1017.2 |
| 20260905160226 | 88 | 107 | 2.0 | 3.0 | 0.00 | 0.00 | 0.00 | 76 | 1017.2 |
| 20260905155726 | 89 | 144 | 1.0 | 1.0 | 0.00 | 0.00 | 0.00 | 76 | 1017.4 |
| 20260905155225 | 89 | 144 | 0.0 | 1.0 | 0.00 | 0.00 | 0.00 | 76 | 1017.5 |
| 20260905154719 | 88 | 132 | 0.0 | 1.0 | 0.00 | 0.00 | 0.00 | 77 | 1017.3 |
| 20260905154215 | 87 | 136 | 1.0 | 3.0 | 0.00 | 0.00 | 0.00 | 79 | 1017.5 |
| 20260905153710 | 87 | 132 | 2.0 | 2.0 | 0.00 | 0.00 | 0.00 | 79 | 1017.5 |
| 20260905153206 | 87 | 142 | 1.0 | 1.0 | 0.00 | 0.00 | 0.00 | 78 | 1017.4 |
| 20260905152701 | 87 | 124 | 2.0 | 2.0 | 0.00 | 0.00 | 0.00 | 79 | 1017.5 |
| 20260905152155 | 87 | 122 | 1.0 | 2.0 | 0.00 | 0.00 | 0.00 | 79 | 1017.6 |
| 20260905151650 | 89 | 144 | 1.0 | 2.0 | 0.00 | 0.00 | 0.00 | 76 | 1017.6 |
| 20260905151146 | 90 | 164 | 0.0 | 0.0 | 0.00 | 0.00 | 0.00 | 74 | 1017.6 |
| 20260905150641 | 89 | 187 | 1.0 | 1.0 | 0.00 | 0.00 | 0.00 | 75 | 1017.7 |
| 20260905150139 | 88 | 189 | 1.0 | 2.0 | 0.00 | 0.00 | 0.00 | 76 | 1017.8 |
| 20260905145637 | 87 | 200 | 2.0 | 2.0 | 0.00 | 0.00 | 0.00 | 77 | 1017.6 |
| 20260905145137 | 88 | 207 | 2.0 | 2.0 | 0.00 | 0.00 | 0.00 | 76 | 1017.9 |
| 20260905144632 | 88 | 218 | 2.0 | 2.0 | 0.00 | 0.00 | 0.00 | 75 | 1017.9 |
| 20260905144131 | 88 | 159 | 1.0 | 2.0 | 0.00 | 0.00 | 0.00 | 78 | 1018.0 |
| 20260905143625 | 86 | 139 | 1.0 | 1.0 | 0.00 | 0.00 | 0.00 | 78 | 1017.9 |
| 20260905143120 | 86 | 130 | 1.0 | 1.0 | 0.00 | 0.00 | 0.00 | 79 | 1018.0 |
| 20260905142619 | 85 | 136 | 1.0 | 3.0 | 0.00 | 0.00 | 0.00 | 79 | 1018.0 |
| 20260905142118 | 85 | 137 | 2.0 | 2.0 | 0.00 | 0.00 | 0.00 | 79 | 1018.0 |
| 20260905141618 | 87 | 137 | 1.0 | 1.0 | 0.00 | 0.00 | 0.00 | 75 | 1017.8 |
| 20260905141115 | 87 | 142 | 0.0 | 1.0 | 0.00 | 0.00 | 0.00 | 74 | 1018.0 |
| 20260905140615 | 85 | 142 | 1.0 | 1.0 | 0.00 | 0.00 | 0.00 | 77 | 1018.0 |
| 20260905140115 | 85 | 121 | 1.0 | 1.0 | 0.00 | 0.00 | 0.00 | 79 | 1018.0 |
| 20260905135610 | 84 | 126 | 1.0 | 2.0 | 0.00 | 0.00 | 0.00 | 79 | 1018.0 |
| 20260905135105 | 85 | 138 | 1.0 | 1.0 | 0.00 | 0.00 | 0.00 | 79 | 1018.0 |
| 20260905134600 | 85 | 149 | 1.0 | 1.0 | 0.00 | 0.00 | 0.00 | 78 | 1018.0 |
| 20260905134058 | 85 | 146 | 1.0 | 1.0 | 0.00 | 0.00 | 0.00 | 78 | 1018.0 |
| 20260905133555 | 87 | 138 | 1.0 | 2.0 | 0.00 | 0.00 | 0.00 | 77 | 1018.1 |
| 20260905133054 | 87 | 160 | 1.0 | 1.0 | 0.00 | 0.00 | 0.00 | 77 | 1018.3 |
| 20260905132554 | 87 | 169 | 0.0 | 1.0 | 0.00 | 0.00 | 0.00 | 78 | 1018.5 |
| 20260905132049 | 87 | 175 | 0.0 | 1.0 | 0.00 | 0.00 | 0.00 | 78 | 1018.3 |
| 20260905131544 | 85 | 162 | 1.0 | 1.0 | 0.00 | 0.00 | 0.00 | 81 | 1018.5 |
| 20260905131039 | 85 | 133 | 0.0 | 1.0 | 0.00 | 0.00 | 0.00 | 81 | 1018.3 |
| 20260905130538 | 85 | 175 | 1.0 | 1.0 | 0.00 | 0.00 | 0.00 | 81 | 1018.1 |
| 20260905130034 | 85 | 145 | 1.0 | 2.0 | 0.00 | 0.00 | 0.00 | 81 | 1018.4 |
| 20260905125533 | 85 | 166 | 1.0 | 1.0 | 0.00 | 0.00 | 0.00 | 80 | 1018.3 |
| 20260905125029 | 86 | 165 | 0.0 | 1.0 | 0.00 | 0.00 | 0.00 | 80 | 1018.3 |
| 20260905124526 | 83 | 156 | 0.0 | 0.0 | 0.00 | 0.00 | 0.00 | 88 | 1018.2 |
| 20260905124021 | 81 | 140 | 0.0 | 0.0 | 0.00 | 0.00 | 0.00 | 92 | 1018.4 |
| 20260905123517 | 79 | 105 | 0.0 | 0.0 | 0.00 | 0.00 | 0.00 | 92 | 1018.2 |
| 20260905123014 | 78 | 56 | 0.0 | 1.0 | 0.00 | 0.00 | 0.00 | 93 | 1018.0 |
| 20260905122513 | 77 | 337 | 1.0 | 1.0 | 0.00 | 0.00 | 0.00 | 93 | 1018.3 |
| 20260905122008 | 77 | 346 | 1.0 | 1.0 | 0.00 | 0.00 | 0.00 | 94 | 1018.0 |
| 20260905121503 | 77 | 357 | 1.0 | 2.0 | 0.00 | 0.00 | 0.00 | 95 | 1018.1 |
| 20260905121002 | 76 | 335 | 1.0 | 2.0 | 0.00 | 0.00 | 0.00 | 95 | 1018.1 |
| 20260905120456 | 76 | 350 | 1.0 | 2.0 | 0.00 | 0.00 | 0.00 | 95 | 1018.1 |
| 20260905115952 | 75 | 336 | 2.0 | 2.0 | 0.00 | 0.00 | 0.00 | 96 | 1018.1 |
| 20260905115451 | 75 | 337 | 1.0 | 2.0 | 0.00 | 0.00 | 0.00 | 96 | 1017.6 |
| 20260905114946 | 75 | 341 | 2.0 | 2.0 | 0.00 | 0.00 | 0.00 | 96 | 1017.8 |
| 20260905114446 | 75 | 344 | 1.0 | 2.0 | 0.00 | 0.00 | 0.00 | 96 | 1017.8 |
| 20260905113944 | 75 | 344 | 1.0 | 2.0 | 0.00 | 0.00 | 0.00 | 96 | 1017.8 |
| 20260905113440 | 75 | 338 | 2.0 | 2.0 | 0.00 | 0.00 | 0.00 | 96 | 1017.7 |
| 20260905112935 | 75 | 333 | 1.0 | 2.0 | 0.00 | 0.00 | 0.00 | 96 | 1017.5 |
| 20260905112430 | 75 | 339 | 2.0 | 3.0 | 0.00 | 0.00 | 0.00 | 96 | 1017.4 |
| 20260905111926 | 75 | 328 | 2.0 | 2.0 | 0.00 | 0.00 | 0.00 | 96 | 1017.6 |
| 20260905111425 | 75 | 332 | 1.0 | 2.0 | 0.00 | 0.00 | 0.00 | 96 | 1017.2 |
| 20260905110920 | 75 | 326 | 2.0 | 2.0 | 0.00 | 0.00 | 0.00 | 96 | 1017.1 |
| 20260905110419 | 75 | 336 | 1.0 | 2.0 | 0.00 | 0.00 | 0.00 | 96 | 1017.2 |
| 20260905105914 | 75 | 344 | 1.0 | 2.0 | 0.00 | 0.00 | 0.00 | 96 | 1017.3 |
| 20260905105414 | 75 | 332 | 1.0 | 2.0 | 0.00 | 0.00 | 0.00 | 96 | 1017.2 |
| 20260905104914 | 75 | 341 | 1.0 | 2.0 | 0.00 | 0.00 | 0.00 | 96 | 1017.1 |
| 20260905104410 | 75 | 334 | 1.0 | 2.0 | 0.00 | 0.00 | 0.00 | 96 | 1017.1 |
| 20260905103910 | 75 | 332 | 1.0 | 2.0 | 0.00 | 0.00 | 0.00 | 96 | 1017.0 |
| 20260905103405 | 76 | 354 | 1.0 | 2.0 | 0.00 | 0.00 | 0.00 | 96 | 1017.0 |
| 20260905102901 | 75 | 346 | 1.0 | 2.0 | 0.00 | 0.00 | 0.00 | 95 | 1017.0 |
| 20260905102357 | 76 | 341 | 2.0 | 2.0 | 0.00 | 0.00 | 0.00 | 95 | 1016.7 |
| 20260905101852 | 75 | 344 | 1.0 | 2.0 | 0.00 | 0.00 | 0.00 | 95 | 1016.9 |
| 20260905101350 | 75 | 345 | 1.0 | 2.0 | 0.00 | 0.00 | 0.00 | 96 | 1017.1 |
| 20260905100845 | 76 | 343 | 1.0 | 2.0 | 0.00 | 0.00 | 0.00 | 96 | 1017.1 |
| 20260905100341 | 76 | 334 | 1.0 | 2.0 | 0.00 | 0.00 | 0.00 | 95 | 1016.9 |
| 20260905095840 | 76 | 332 | 2.0 | 2.0 | 0.00 | 0.00 | 0.00 | 95 | 1017.0 |
| 20260905095340 | 76 | 334 | 1.0 | 2.0 | 0.00 | 0.00 | 0.00 | 96 | 1017.0 |
| 20260905094835 | 76 | 337 | 1.0 | 2.0 | 0.00 | 0.00 | 0.00 | 96 | 1017.2 |
| 20260905094331 | 76 | 334 | 1.0 | 2.0 | 0.00 | 0.00 | 0.00 | 96 | 1017.1 |
| 20260905093829 | 76 | 338 | 2.0 | 2.0 | 0.00 | 0.00 | 0.00 | 96 | 1016.6 |
| 20260905093326 | 76 | 341 | 2.0 | 2.0 | 0.00 | 0.00 | 0.00 | 96 | 1016.8 |
| 20260905092821 | 76 | 331 | 2.0 | 2.0 | 0.00 | 0.00 | 0.00 | 96 | 1016.9 |
| 20260905092321 | 76 | 339 | 1.0 | 3.0 | 0.00 | 0.00 | 0.00 | 96 | 1016.7 |
| 20260905091816 | 77 | 343 | 1.0 | 2.0 | 0.00 | 0.00 | 0.00 | 96 | 1016.7 |
| 20260905091316 | 77 | 3 | 1.0 | 2.0 | 0.00 | 0.00 | 0.00 | 96 | 1016.5 |
| 20260905090815 | 77 | 359 | 1.0 | 2.0 | 0.00 | 0.00 | 0.00 | 96 | 1016.8 |
| 20260905090311 | 76 | 341 | 1.0 | 2.0 | 0.00 | 0.00 | 0.00 | 96 | 1016.7 |
| 20260905085810 | 77 | 332 | 1.0 | 2.0 | 0.00 | 0.00 | 0.00 | 96 | 1016.7 |
| 20260905085310 | 77 | 341 | 1.0 | 2.0 | 0.00 | 0.00 | 0.00 | 96 | 1016.7 |
| 20260905084806 | 77 | 340 | 2.0 | 2.0 | 0.00 | 0.00 | 0.00 | 96 | 1016.8 |
| 20260905084305 | 77 | 336 | 2.0 | 2.0 | 0.00 | 0.00 | 0.00 | 95 | 1016.6 |
| 20260905083800 | 77 | 330 | 1.0 | 1.0 | 0.00 | 0.00 | 0.00 | 95 | 1016.7 |
| 20260905083256 | 77 | 335 | 2.0 | 2.0 | 0.00 | 0.00 | 0.00 | 95 | 1016.7 |
| 20260905082751 | 77 | 335 | 1.0 | 2.0 | 0.00 | 0.00 | 0.00 | 95 | 1016.8 |
| 20260905082248 | 77 | 344 | 1.0 | 2.0 | 0.00 | 0.00 | 0.00 | 94 | 1016.8 |
| 20260905081742 | 78 | 332 | 1.0 | 1.0 | 0.00 | 0.00 | 0.00 | 94 | 1016.7 |
| 20260905081237 | 77 | 341 | 1.0 | 2.0 | 0.00 | 0.00 | 0.00 | 94 | 1016.6 |
| 20260905080736 | 77 | 327 | 1.0 | 2.0 | 0.00 | 0.00 | 0.00 | 94 | 1016.5 |
| 20260905080236 | 77 | 342 | 2.0 | 2.0 | 0.00 | 0.00 | 0.00 | 94 | 1016.8 |
| 20260905075735 | 78 | 357 | 1.0 | 2.0 | 0.00 | 0.00 | 0.00 | 94 | 1016.6 |
| 20260905075234 | 77 | 338 | 2.0 | 2.0 | 0.00 | 0.00 | 0.00 | 94 | 1016.5 |
| 20260905074733 | 78 | 323 | 1.0 | 2.0 | 0.00 | 0.00 | 0.00 | 93 | 1016.5 |
| 20260905074230 | 78 | 339 | 1.0 | 2.0 | 0.00 | 0.00 | 0.00 | 94 | 1016.7 |
| 20260905073725 | 78 | 359 | 1.0 | 2.0 | 0.00 | 0.00 | 0.00 | 94 | 1016.6 |
| 20260905073220 | 78 | 349 | 2.0 | 2.0 | 0.00 | 0.00 | 0.00 | 93 | 1016.6 |
| 20260905072719 | 78 | 359 | 1.0 | 2.0 | 0.00 | 0.00 | 0.00 | 93 | 1016.6 |
| 20260905072215 | 77 | 338 | 2.0 | 2.0 | 0.00 | 0.00 | 0.00 | 93 | 1016.6 |
| 20260905071712 | 78 | 334 | 2.0 | 2.0 | 0.00 | 0.00 | 0.00 | 92 | 1016.4 |
| 20260905071208 | 78 | 336 | 1.0 | 2.0 | 0.00 | 0.00 | 0.00 | 92 | 1016.6 |
| 20260905070702 | 78 | 346 | 2.0 | 2.0 | 0.00 | 0.00 | 0.00 | 92 | 1016.4 |
| 20260905070158 | 78 | 341 | 1.0 | 2.0 | 0.00 | 0.00 | 0.00 | 92 | 1016.3 |
| 20260905065656 | 78 | 334 | 2.0 | 2.0 | 0.00 | 0.00 | 0.00 | 91 | 1016.5 |
| 20260905065151 | 78 | 346 | 1.0 | 2.0 | 0.00 | 0.00 | 0.00 | 91 | 1016.6 |
| 20260905064646 | 79 | 343 | 1.0 | 2.0 | 0.00 | 0.00 | 0.00 | 91 | 1016.8 |
| 20260905064142 | 79 | 333 | 1.0 | 2.0 | 0.00 | 0.00 | 0.00 | 90 | 1016.7 |
| 20260905063640 | 78 | 338 | 2.0 | 2.0 | 0.00 | 0.00 | 0.00 | 91 | 1016.8 |
| 20260905063137 | 78 | 341 | 1.0 | 2.0 | 0.00 | 0.00 | 0.00 | 91 | 1016.9 |
| 20260905062632 | 78 | 323 | 1.0 | 3.0 | 0.00 | 0.00 | 0.00 | 91 | 1016.9 |
| 20260905062131 | 79 | 1 | 1.0 | 2.0 | 0.00 | 0.00 | 0.00 | 91 | 1016.6 |
| 20260905061626 | 78 | 330 | 2.0 | 2.0 | 0.00 | 0.00 | 0.00 | 91 | 1016.7 |
| 20260905061126 | 79 | 337 | 1.0 | 2.0 | 0.00 | 0.00 | 0.00 | 91 | 1016.8 |
| 20260905060622 | 79 | 347 | 2.0 | 2.0 | 0.00 | 0.00 | 0.00 | 90 | 1016.7 |
| 20260905060118 | 79 | 341 | 2.0 | 2.0 | 0.00 | 0.00 | 0.00 | 90 | 1016.7 |